Back to catalog

USA 574

AliveMilitaryVLEO
NORAD 67486·PAYLOAD·🇺🇸 United States

Launched Jan 17, 2026 from Vandenberg Space Force Base

Loading…

Next Passes (next 24 hours)

TLE

StaleSource: Mike McCants

Epoch: Aug 3, 2026, 20:36 UTC

1 67486U 26011C   26215.85882484 0.00000000  00000-0  00000-0 0    07
2 67486  70.0190 117.2993 0002000 304.0224  55.9776 14.96713302    04

Track USA 574 in real time with AllMySat

Download on the App Store